Regional Weather Roundup
Issued by NWS Goodland, KS

Home | Current Version | Previous Version | Graphics & Text | Print | Product List | Glossary On
Versions: 1 2 3 4 5 6 7 8 9 10 11 12 13 14 15 16 17 18 19 20 21 22 23 24 25 26 27 28 29 30 31 32 33 34 35 36 37 38 39 40 41 42 43 44 45 46 47 48 49 50
000
ASUS43 KGLD 010808
RWRGLD

GOODLAND FORECAST AREA HOURLY WEATHER ROUNDUP
NATIONAL WEATHER SERVICE GOODLAND KS
200 AM MDT SUN MAY 01 2016

...OFFICIAL OBSERVATIONS...

CITY           SKY/WX    TMP DP  RH WIND       PRES   REMARKS
GOODLAND KS    CLOUDY    35  33  92 N25G32    30.05R
HILL CITY KS   CLOUDY    40  38  93 NW13      29.98R
IMPERIAL NEB   MIX PCPN  34  33  96 N20       30.08S FOG
MCCOOK NEB     CLOUDY    37  34  89 N18       30.01R
AKRON CO       LGT SNOW  32  31  96 N23       30.14S FOG     WCI  19
BURLINGTON CO  CLOUDY    35  31  85 N22G28    30.07S
LIMON CO       CLOUDY    32  30  92 NW35G41   30.12S WCI  17
$$

...UNOFFICIAL OBSERVATIONS...

CITY           SKY/WX    TMP DP  RH WIND       PRES   REMARKS
COLBY KS       CLOUDY    37  37 100 NW17G25   30.04R
GOVE KS          N/A     39  32  76 MISG        N/A
LENORA KS        N/A     39  32  76 MISG        N/A
NORTON KS      CLOUDY    39  36  87 NW15G22   29.96R
SHARON SPRINGS   N/A     37  33  87 NW18G28     N/A
TRIBUNE KS     CLOUDY    39  34  81 NW21      30.09S
KIT CARSON CO    N/A     35  32  89 MISG        N/A
YUMA CO          N/A     33  31  93 N12         N/A
$$




USA.gov is the U.S. government's official web portal to all federal, state and local government web resources and services.